Weather History for KRQO - November, 2013

Change the Weather History Date:

Thursday, November 28, 2013

  Actual Average (KOKC) Record (KOKC)
Temperature  
Mean Temperature 42 °F 45 °F  
Max Temperature 55 °F 56 °F 79 °F (1949)
Min Temperature 30 °F 35 °F 14 °F (1896)
Degree Days  
Heating Degree Days 22 20  
Month to date heating degree days 393  
Since 1 July heating degree days 557  
Cooling Degree Days 0 0  
Month to date cooling degree days 7  
Year to date cooling degree days 2099  
Moisture  
Dew Point 27 °F    
Average Humidity 62    
Maximum Humidity 81    
Minimum Humidity 36    
Precipitation  
Precipitation 0.00 in 0.06 in 1.44 in (1908)
Month to date precipitation 1.87  
Year to date precipitation 34.53  
Snow  
Snow 0.00 in 0.00 in 3.70 in (2001)
Month to date snowfall 0.3  
Since 1 July snowfall 0.3  
Snow Depth -    
Sea Level Pressure  
Sea Level Pressure 30.30 in    
Wind  
Wind Speed 10 mph (South)    
Max Wind Speed 16 mph    
Max Gust Speed 17 mph    
T = Trace of Precipitation, MM = Missing Value Source: NWS Daily Summary

Daily Weather History Graph

Daily Weather History Graph

Search for Another Location

Airport or City:

Trip Planner

Search our weather history database for the weather conditions in past years. The results will help you decide how hot, cold, wet, or windy it might be!

Date:

Astronomy

Nov. 28, 2013 Rise Set
Actual Time 7:20 AM CST 5:19 PM CST
Civil Twilight 6:52 AM CST 5:47 PM CST
Nautical Twilight 6:21 AM CST 6:18 PM CST
Astronomical Twilight 5:50 AM CST 6:49 PM CST
Moon 2:33 AM CST (11/28) 2:21 PM CST (11/28)
Length of Visible Light 10h 54m
Length of Day
9h 59m
Waning Crescent, 22% of the Moon is Illuminated
Nov 28
Waning Crescent
Dec 2
New
Dec 9
First Quarter
Dec 17
Full
Dec 25
Last Quarter

Hourly Weather History & Observations

Time (CST) Temp. Windchill Dew Point Humidity Pressure Visibility Wind Dir Wind Speed Gust Speed Precip Events Conditions
12:15 AM 30.2 °F 21.9 °F 21.2 °F 69% 30.25 in - South 9.2 mph - N/A   Clear
12:35 AM 30.2 °F 21.9 °F 21.2 °F 69% 30.24 in - South 9.2 mph - N/A   Clear
12:55 AM 30.2 °F 21.9 °F 23.0 °F 75% 30.24 in - South 9.2 mph - N/A   Clear
1:15 AM 30.2 °F 21.9 °F 23.0 °F 75% 30.23 in - South 9.2 mph - N/A   Clear
1:35 AM 32.0 °F 22.5 °F 23.0 °F 69% 30.23 in - South 12.7 mph - N/A   Clear
1:55 AM 32.0 °F 23.0 °F 21.2 °F 64% 30.23 in - South 11.5 mph - N/A   Clear
2:15 AM 32.0 °F 23.0 °F 21.2 °F 64% 30.23 in - South 11.5 mph - N/A   Clear
2:35 AM 32.0 °F 23.6 °F 21.2 °F 64% 30.23 in - South 10.4 mph - N/A   Clear
2:55 AM 32.0 °F 22.5 °F 21.2 °F 64% 30.24 in - South 12.7 mph - N/A   Clear
3:15 AM 32.0 °F 23.0 °F 21.2 °F 64% 30.23 in - South 11.5 mph - N/A   Clear
3:35 AM 32.0 °F 23.6 °F 21.2 °F 64% 30.24 in - South 10.4 mph - N/A   Clear
3:55 AM 32.0 °F 23.6 °F 21.2 °F 64% 30.24 in - South 10.4 mph - N/A   Clear
4:15 AM 32.0 °F 22.5 °F 23.0 °F 69% 30.23 in - South 12.7 mph - N/A   Clear
4:35 AM 32.0 °F 23.6 °F 23.0 °F 69% 30.23 in - South 10.4 mph - N/A   Clear
4:55 AM 32.0 °F 23.6 °F 23.0 °F 69% 30.23 in - South 10.4 mph - N/A   Clear
5:15 AM 32.0 °F 25.6 °F 23.0 °F 69% 30.24 in - South 6.9 mph - N/A   Clear
5:35 AM 32.0 °F 25.6 °F 23.0 °F 69% 30.24 in - SSW 6.9 mph - N/A   Clear
5:55 AM 30.2 °F 21.9 °F 23.0 °F 75% 30.24 in - South 9.2 mph - N/A   Clear
6:15 AM 30.2 °F 22.6 °F 23.0 °F 75% 30.25 in - South 8.1 mph - N/A   Clear
6:35 AM 30.2 °F 21.9 °F 23.0 °F 75% 30.26 in - South 9.2 mph - N/A   Clear
6:55 AM 30.2 °F 25.4 °F 23.0 °F 75% 30.26 in - SSE 4.6 mph - N/A   Clear
7:15 AM 30.2 °F 22.6 °F 23.0 °F 75% 30.27 in - South 8.1 mph - N/A   Clear
7:35 AM 30.2 °F 24.3 °F 23.0 °F 75% 30.28 in - SSE 5.8 mph - N/A   Clear
7:55 AM 30.2 °F 25.4 °F 24.8 °F 80% 30.28 in - SSE 4.6 mph - N/A   Clear
8:15 AM 32.0 °F 26.4 °F 24.8 °F 75% 30.29 in - SSE 5.8 mph - N/A   Clear
8:35 AM 33.8 °F 27.0 °F 26.6 °F 75% 30.30 in - South 8.1 mph - N/A   Clear
8:55 AM 33.8 °F 26.4 °F 26.6 °F 75% 30.30 in - South 9.2 mph - N/A   Clear
9:15 AM 37.4 °F 32.1 °F 26.6 °F 65% 30.31 in - South 6.9 mph - N/A   Clear
9:35 AM 41.0 °F 35.8 °F 28.4 °F 61% 30.31 in - SSW 8.1 mph - N/A   Clear
9:55 AM 42.8 °F 36.6 °F 28.4 °F 57% 30.31 in - SSW 11.5 mph - N/A   Clear
10:15 AM 44.6 °F 38.4 °F 30.2 °F 57% 30.31 in - SSW 12.7 mph - N/A   Clear
10:35 AM 46.4 °F 41.1 °F 30.2 °F 53% 30.32 in - SSW 11.5 mph - N/A   Clear
10:55 AM 48.2 °F - 30.2 °F 50% 30.32 in - SSW 13.8 mph - N/A   Clear
11:15 AM 50.0 °F - 30.2 °F 47% 30.32 in - SW 12.7 mph - N/A   Clear
11:35 AM 51.8 °F - 30.2 °F 44% 30.31 in - SW 11.5 mph - N/A   Clear
11:55 AM 51.8 °F - 30.2 °F 44% 30.31 in - SSW 11.5 mph - N/A   Clear
12:15 PM 53.6 °F - 30.2 °F 41% 30.30 in - SW 13.8 mph - N/A   Clear
12:35 PM 55.4 °F - 30.2 °F 38% 30.29 in - SW 16.1 mph - N/A   Clear
12:55 PM 55.4 °F - 28.4 °F 36% 30.29 in - SW 12.7 mph - N/A   Clear
1:15 PM 55.4 °F - 28.4 °F 36% 30.29 in - SW 13.8 mph 17.3 mph N/A   Clear
1:35 PM 55.4 °F - 28.4 °F 36% 30.28 in - WSW 10.4 mph - N/A   Clear
1:55 PM 55.4 °F - 30.2 °F 38% 30.28 in - SW 9.2 mph - N/A   Clear
2:15 PM 55.4 °F - 30.2 °F 38% 30.28 in - SW 9.2 mph - N/A   Clear
2:35 PM 55.4 °F - 28.4 °F 36% 30.28 in - SSW 10.4 mph - N/A   Clear
2:55 PM 55.4 °F - 28.4 °F 36% 30.28 in - SW 8.1 mph - N/A   Clear
3:15 PM 55.4 °F - 28.4 °F 36% 30.28 in - South 8.1 mph - N/A   Clear
3:35 PM 55.4 °F - 30.2 °F 38% 30.29 in - South 11.5 mph - N/A   Clear
3:55 PM 53.6 °F - 30.2 °F 41% 30.29 in - South 10.4 mph 16.1 mph N/A   Clear
4:15 PM 53.6 °F - 30.2 °F 41% 30.30 in - SSW 10.4 mph - N/A   Clear
4:35 PM 51.8 °F - 30.2 °F 44% 30.30 in - South 9.2 mph - N/A   Clear
4:55 PM 50.0 °F - 32.0 °F 50% 30.31 in - South 10.4 mph - N/A   Clear
5:15 PM 46.4 °F 41.9 °F 32.0 °F 57% 30.31 in - South 9.2 mph - N/A   Clear
5:35 PM 44.6 °F 39.2 °F 32.0 °F 61% 30.31 in - SSE 10.4 mph - N/A   Clear
5:55 PM 42.8 °F 37.5 °F 30.2 °F 61% 30.32 in - SSE 9.2 mph - N/A   Clear
6:15 PM 41.0 °F 35.8 °F 30.2 °F 65% 30.33 in - SSE 8.1 mph - N/A   Clear
6:35 PM 39.2 °F 33.6 °F 30.2 °F 70% 30.34 in - SSE 8.1 mph - N/A   Clear
6:55 PM 41.0 °F 35.8 °F 30.2 °F 65% 30.35 in - South 8.1 mph - N/A   Clear
7:15 PM 41.0 °F 36.4 °F 28.4 °F 61% 30.35 in - South 6.9 mph - N/A   Clear
7:35 PM 41.0 °F 35.8 °F 28.4 °F 61% 30.35 in - SSE 8.1 mph - N/A   Clear
7:55 PM 37.4 °F 32.1 °F 28.4 °F 70% 30.36 in - SSE 6.9 mph - N/A   Clear
8:15 PM 37.4 °F 31.4 °F 28.4 °F 70% 30.37 in - South 8.1 mph - N/A   Clear
8:35 PM 35.6 °F 28.6 °F 28.4 °F 75% 30.38 in - SSE 9.2 mph - N/A   Clear
8:55 PM 33.8 °F 27.7 °F 28.4 °F 81% 30.38 in - SE 6.9 mph - N/A   Clear
9:15 PM 33.8 °F 25.8 °F 26.6 °F 75% 30.38 in - SSE 10.4 mph - N/A   Clear
9:35 PM 33.8 °F 25.8 °F 26.6 °F 75% 30.38 in - SSE 10.4 mph - N/A   Clear
9:55 PM 33.8 °F 25.8 °F 26.6 °F 75% 30.38 in - SSE 10.4 mph - N/A   Clear
10:15 PM 33.8 °F 26.4 °F 26.6 °F 75% 30.39 in - SSE 9.2 mph - N/A   Clear
10:35 PM 33.8 °F 26.4 °F 26.6 °F 75% 30.39 in - SSE 9.2 mph - N/A   Clear
10:55 PM 33.8 °F 26.4 °F 26.6 °F 75% 30.40 in - South 9.2 mph - N/A   Clear
11:15 PM 32.0 °F 24.8 °F 26.6 °F 80% 30.40 in - South 8.1 mph - N/A   Clear
11:35 PM 32.0 °F 24.8 °F 26.6 °F 80% 30.40 in - SSE 8.1 mph - N/A   Clear
11:55 PM 32.0 °F 24.8 °F 26.6 °F 80% 30.40 in - South 8.1 mph - N/A   Clear